Pennock, MN

4:17 PM CST on December 07, 2016 (GMT -0600)
Willmar

Weather History for KBDH - June, 2014

Change the Weather History Date:

Monday, June 9, 2014

  Actual Average (KBBB) Record (KBBB)
Temperature  
Mean Temperature 64 °F -  
Max Temperature 71 °F 77 °F 98 °F (1973)
Min Temperature 57 °F 54 °F 39 °F (1989)
Degree Days  
Heating Degree Days 1    
Growing Degree Days 14 (Base 50)    
Moisture  
Dew Point 48 °F    
Average Humidity 58    
Maximum Humidity 88    
Minimum Humidity 35    
Precipitation  
Precipitation 0.00 in - - ()
Sea Level Pressure  
Sea Level Pressure 30.03 in    
Wind  
Wind Speed 2 mph (East)    
Max Wind Speed 8 mph    
Max Gust Speed -    
Visibility 10 miles    
Events Rain    
Averages and records for this station are not official NWS values.
T = Trace of Precipitation, MM = Missing Value Source: NWS Daily Summary

Daily Weather History Graph

Daily Weather History Graph

Search for Another Location

Airport or City:

Trip Planner

Search our weather history database for the weather conditions in past years. The results will help you decide how hot, cold, wet, or windy it might be!

Date:

Astronomy

Jun. 09, 2014 Rise Set
Actual Time 5:33 AM CDT 9:06 PM CDT
Civil Twilight 4:56 AM CDT 9:43 PM CDT
Nautical Twilight 4:07 AM CDT 10:32 PM CDT
Astronomical Twilight 3:02 AM CDT 11:37 PM CDT
Moon 5:19 PM CDT (6/9) 3:11 AM CDT (6/9)
Length of Visible Light 16h 47m
Length of Day
15h 32m
Waxing Gibbous, 85% of the Moon is Illuminated
Jun 9
Waxing Gibbous
Jun 12
Full
Jun 19
Last Quarter
Jun 27
New
Jul 5
First Quarter

Hourly Weather History & Observations

Time (CDT) Temp. Dew Point Humidity Pressure Visibility Wind Dir Wind Speed Gust Speed Precip Events Conditions
12:15 AM 60.8 °F 51.8 °F 72% 30.07 in 10.0 mi Calm Calm - N/A   Clear
12:35 AM 60.8 °F 51.8 °F 72% 30.06 in 10.0 mi Calm Calm - N/A   Mostly Cloudy
12:55 AM 60.8 °F 51.8 °F 72% 30.06 in 10.0 mi Calm Calm - N/A   Mostly Cloudy
1:15 AM 60.8 °F 51.8 °F 72% 30.06 in 10.0 mi Calm Calm - N/A   Scattered Clouds
1:35 AM 60.8 °F 51.8 °F 72% 30.05 in 10.0 mi Calm Calm - N/A   Clear
1:55 AM 60.8 °F 53.6 °F 77% 30.05 in 10.0 mi Calm Calm - N/A   Clear
2:15 AM 60.8 °F 53.6 °F 77% 30.05 in 10.0 mi Calm Calm - N/A   Clear
2:35 AM 59.0 °F 51.8 °F 77% 30.05 in 10.0 mi Calm Calm - N/A   Clear
2:55 AM 59.0 °F 51.8 °F 77% 30.05 in 10.0 mi Calm Calm - N/A   Clear
3:15 AM 59.0 °F 51.8 °F 77% 30.05 in 10.0 mi North 3.5 mph - N/A   Scattered Clouds
3:35 AM 57.2 °F 51.8 °F 82% 30.05 in 10.0 mi Calm Calm - N/A   Scattered Clouds
3:55 AM 59.0 °F 51.8 °F 77% 30.05 in 10.0 mi Calm Calm - N/A   Scattered Clouds
4:15 AM 59.0 °F 51.8 °F 77% 30.05 in 10.0 mi Calm Calm - N/A   Scattered Clouds
4:34 AM 59.0 °F 51.8 °F 77% 30.05 in 10.0 mi Calm Calm - N/A   Clear
4:55 AM 59.0 °F 51.8 °F 77% 30.05 in 10.0 mi Calm Calm - N/A   Clear
5:15 AM 59.0 °F 53.6 °F 82% 30.05 in 10.0 mi NE 3.5 mph - N/A   Scattered Clouds
5:34 AM 57.2 °F 53.6 °F 88% 30.05 in 10.0 mi Calm Calm - N/A   Clear
5:55 AM 59.0 °F 51.8 °F 77% 30.05 in 10.0 mi Calm Calm - N/A   Clear
6:15 AM 59.0 °F 51.8 °F 77% 30.06 in 10.0 mi Calm Calm - N/A   Scattered Clouds
6:34 AM 60.8 °F 48.2 °F 63% 30.07 in 10.0 mi SSW 3.5 mph - N/A   Scattered Clouds
6:55 AM 60.8 °F 48.2 °F 63% 30.08 in 10.0 mi SSE 3.5 mph - N/A   Light Drizzle
7:15 AM 60.8 °F 46.4 °F 59% 30.08 in 10.0 mi Calm Calm - N/A   Light Drizzle
7:34 AM 60.8 °F 46.4 °F 59% 30.08 in 10.0 mi SSW 4.6 mph - N/A   Light Drizzle
7:55 AM 60.8 °F 46.4 °F 59% 30.08 in 10.0 mi Calm Calm - N/A Rain Light Rain
8:15 AM 60.8 °F 48.2 °F 63% 30.08 in 10.0 mi Calm Calm - N/A   Clear
8:35 AM 60.8 °F 48.2 °F 63% 30.07 in 10.0 mi Calm Calm - N/A   Clear
8:55 AM 60.8 °F 48.2 °F 63% 30.06 in 10.0 mi South 3.5 mph - N/A   Clear
9:15 AM 60.8 °F 48.2 °F 63% 30.07 in 10.0 mi Calm Calm - N/A   Clear
9:34 AM 60.8 °F 48.2 °F 63% 30.07 in 10.0 mi SSE 3.5 mph - N/A   Clear
10:15 AM 62.6 °F 46.4 °F 55% 30.08 in 10.0 mi Calm Calm - N/A   Clear
10:34 AM 62.6 °F 48.2 °F 59% 30.08 in 10.0 mi Calm Calm - N/A   Clear
10:55 AM 62.6 °F 46.4 °F 55% 30.07 in 10.0 mi Calm Calm - N/A   Clear
11:34 AM 64.4 °F 46.4 °F 52% 30.06 in 10.0 mi NW 3.5 mph - N/A   Clear
11:55 AM 64.4 °F 46.4 °F 52% 30.06 in 10.0 mi Calm Calm - N/A   Clear
12:15 PM 64.4 °F 46.4 °F 52% 30.06 in 10.0 mi Calm Calm - N/A   Clear
12:35 PM 66.2 °F 46.4 °F 49% 30.06 in 10.0 mi Calm Calm - N/A   Clear
12:55 PM 66.2 °F 48.2 °F 52% 30.05 in 10.0 mi SSW 3.5 mph - N/A   Clear
1:15 PM 66.2 °F 46.4 °F 49% 30.05 in 10.0 mi North 3.5 mph - N/A   Clear
1:35 PM 68.0 °F 46.4 °F 46% 30.05 in 10.0 mi Calm Calm - N/A   Clear
3:15 PM 71.6 °F 44.6 °F 38% 30.02 in 10.0 mi East 5.8 mph - N/A   Clear
3:35 PM 71.6 °F 44.6 °F 38% 30.02 in 10.0 mi East 3.5 mph - N/A   Clear
3:55 PM 71.6 °F 42.8 °F 35% 30.02 in 10.0 mi North 4.6 mph - N/A   Clear
4:15 PM 71.6 °F 44.6 °F 38% 30.01 in 10.0 mi East 8.1 mph - N/A   Clear
4:35 PM 71.6 °F 42.8 °F 35% 30.01 in 10.0 mi ENE 8.1 mph - N/A   Clear
4:55 PM 71.6 °F 42.8 °F 35% 30.01 in 10.0 mi Calm Calm - N/A   Clear
5:15 PM 71.6 °F 42.8 °F 35% 30.01 in 10.0 mi ENE 5.8 mph - N/A   Clear
5:35 PM 71.6 °F 42.8 °F 35% 30.00 in 10.0 mi NNE 5.8 mph - N/A   Clear
5:55 PM 71.6 °F 44.6 °F 38% 30.00 in 10.0 mi NE 6.9 mph - N/A   Clear
6:15 PM 71.6 °F 42.8 °F 35% 30.00 in 10.0 mi NNE 6.9 mph - N/A   Clear
6:35 PM 71.6 °F 42.8 °F 35% 30.00 in 10.0 mi Calm Calm - N/A   Clear
6:55 PM 71.6 °F 42.8 °F 35% 29.99 in 10.0 mi Calm Calm - N/A   Clear
7:15 PM 71.6 °F 44.6 °F 38% 29.99 in 10.0 mi ENE 6.9 mph - N/A   Clear
7:35 PM 71.6 °F 44.6 °F 38% 29.99 in 10.0 mi East 6.9 mph - N/A   Clear
7:55 PM 71.6 °F 44.6 °F 38% 29.99 in 10.0 mi East 4.6 mph - N/A   Clear
8:15 PM 69.8 °F 42.8 °F 38% 29.98 in 10.0 mi East 4.6 mph - N/A   Clear
8:35 PM 69.8 °F 44.6 °F 40% 29.98 in 10.0 mi East 4.6 mph - N/A   Clear
8:55 PM 66.2 °F 44.6 °F 46% 29.98 in 10.0 mi East 4.6 mph - N/A   Clear
9:15 PM 66.2 °F 42.8 °F 43% 29.98 in 10.0 mi East 3.5 mph - N/A   Clear
9:35 PM 64.4 °F 46.4 °F 52% 29.99 in 10.0 mi East 4.6 mph - N/A   Clear
9:55 PM 62.6 °F 46.4 °F 55% 29.99 in 10.0 mi ESE 4.6 mph - N/A   Clear
10:15 PM 62.6 °F 46.4 °F 55% 30.00 in 10.0 mi SE 5.8 mph - N/A   Clear
10:35 PM 62.6 °F 46.4 °F 55% 29.99 in 10.0 mi SSE 4.6 mph - N/A   Clear
10:55 PM 62.6 °F 48.2 °F 59% 29.99 in 10.0 mi SSE 4.6 mph - N/A   Clear
11:15 PM 62.6 °F 50.0 °F 63% 29.99 in 10.0 mi SSE 3.5 mph - N/A   Clear
11:35 PM 59.0 °F 50.0 °F 72% 29.99 in 10.0 mi SE 3.5 mph - N/A   Clear
11:54 PM 57.2 °F 51.8 °F 82% 29.99 in 10.0 mi Calm Calm - N/A   Clear